SCP
0 -0 -0 -0 -0 -0 0 0 0 -0 0 -0 -0 0 0 0 0 -0 -0 0 -0 -0 -0 -0 -0 -0 -0 -0 -0 -0 -0 -0 -0 -0 -0 0 0 0 0 0 0 0 0
-0 -0 -0 -0 -0 -0 -0 0 0 0 0 0 0 -0 0 0 0 -0 0 0 -0 -0 -0 -0 -0 -0 -0 -0 -0 -0 -0 0 0 0 0 -0 0 0 0 0 0 0 0
-0 -0 -0 -0 -0 -0 -0 -0 0 0 0 0 0 0 0 0 -0 0 0 0 -0 -0 -0 -0 -0 -0 -0 -0 -0 -0 0 0 0 0 -0 -0 -0 0 0 0 0 0 0
-0 -0 -0 -0 -0 0 -0 -0 0 0 0 0 0 0 -0 -0 0 -0 -0 -0 -0 -0 -0 0 -0 -0 -0 -0 0 0 0 0 0 0 -0 -0 0 0 0 0 0 0 0
-0 -0 -0 -0 -0 -0 0 -0 -0 -0 -0 -0 -0 -0 -0 0 0 -0 -0 -0 -0 -0 -0 0 -0 0 0 0 0 0 0 0 0 0 0 0 0 0 0 0 0 0 0
0 0 -0 -0 -0 -0 0 0 0 -0 0 -0 -0 -0 -0 0 -0 0 0 0 0 0 0 0 0 0 0 0 0 0 0 0 0 0 0 0 0 0 0 0 0 0 0
0 0 0 -0 -0 -0 0 0 0 -0 -0 0 -0 -0 -0 0 -0 -0 -0 -0 0 0 0 0 0 0 0 0 0 0 0 0 0 0 0 0 0 0 0 0 0 0 0
-0 0 0 0 0 0 -0 0 0 -0 0 0 0 -0 0 0 -0 -0 -0 -0 -0 -0 -0 0 -0 0 0 0 0 0 0 0 0 0 0 0 0 0 0 0 0 0 0
0 0 -0 -0 -0 -0 -0 0 0 0 0 0 0 0 0 0 0 0 0 0 0 0 0 0 0 0 0 0 0 0 0 0 0 0 0 0 0 0 0 0 0 0 0
-0 -0 0 0 0 -0 -0 -0 -0 -0 -0 -0 -0 -0 0 0 -0 0 0 0 0 0 0 0 0 0 0 0 0 0 0 0 0 0 0 0 0 0 0 0 0 0 0
-0 -0 0 0 0 0 0 0 0 0 0 0 0 -0 0 0 0 0 0 0 0 0 0 0 0 0 0 0 0 0 0 0 0 0 0 0 0 0 0 0 0 0 0
-0 -0 0 -0 -0 0 0 0 0 0 0 0 0 0 0 0 0 0 0 0 0 0 0 0 0 0 0 0 0 0 0 0 0 0 0 0 0 0 0 0 0 0 0
-0 -0 0 0 -0 -0 0 0 0 0 0 0 0 0 0 0 0 0 0 0 0 0 0 0 0 0 0 0 0 0 0 0 0 0 0 0 0 0 0 0 0 0 0
-0 -0 -0 0 0 0 0 0 0 0 0 0 0 0 0 0 0 0 0 0 0 0 0 0 0 0 0 0 0 0 0 0 0 0 0 0 0 0 0 0 0 0 0
-0 -0 0 0 0 0 0 0 0 0 0 0 0 0 0 0 0 0 0 0 0 0 0 0 0 0 0 0 0 0 0 0 0 0 0 0 0 0 0 0 0 0 0
0 0 0 0 0 0 0 0 0 0 0 0 0 0 0 0 0 0 0 0 0 0 0 0 0 0 0 0 0 0 0 0 0 0 0 0 0 0 0 0 0 0 0
0 0 0 0 0 0 0 0 0 0 0 0 0 0 0 0 0 0 0 0 0 0 0 0 0 0 0 0 0 0 0 0 0 0 0 0 0 0 0 0 0 0 0
0 0 0 0 0 0 0 0 0 0 0 0 0 0 0 0 0 0 0 0 0 0 0 0 0 0 0 0 0 0 0 0 0 0 0 0 0 0 0 0 0 0 0
0 0 0 0 0 0 0 0 0 0 0 0 0 0 0 0 0 0 0 0 0 0 0 0 0 0 0 0 0 0 0 0 0 0 0 0 0 0 0 0 0 0 0
0 0 0 0 0 0 0 0 0 0 0 0 0 0 0 0 0 0 0 0 0 0 0 0 0 0 0 0 0 0 0 0 0 0 0 0 0 0 0 0 0 0 0
0 0 0 0 0 0 0 0 0 0 0 0 0 0 0 0 0 0 0 0 0 0 0 0 0 0 0 0 0 0 0 0 0 0 0 0 0 0 0 0 0 0 0
0 0 0 0 0 0 0 0 0 0 0 0 0 0 0 0 0 0 0 0 0 0 0 0 0 0 0 0 0 0 0 0 0 0 0 0 0 0 0 0 0 0 0
0 0 0 0 0 0 0 0 0 0 0 0 0 0 0 0 0 0 0 0 0 0 0 0 0 0 0 0 0 0 0 0 0 0 0 0 0 0 0 0 0 0 0
0 0 0 0 0 0 0 0 0 0 0 0 0 0 0 0 0 0 0 0 0 0 0 0 0 0 0 0 0 0 0 0 0 0 0 0 0 0 0 0 0 0 0
0 0 0 0 0 0 0 0 0 0 0 0 0 0 0 0 0 0 0 0 0 0 0 0 0 0 0 0 0 0 0 0 0 0 0 0 0 0 0 0 0 0 0
0 0 0 0 0 0 0 0 0 0 0 0 0 0 0 0 0 0 0 0 0 0 0 0 0 0 0 0 0 0 0 0 0 0 0 0 0 0 0 0 0 0 0
Wind_Speed_500mb
30 26 19 16 15 19 22 23 24 20 15 13 15 19 24 24 21 20 19 21 19 14 10 6 6 9 12 14 17 19 18 19 20 19 19 19 23 22 21 25 25 27 22
30 30 21 15 13 18 22 22 21 18 16 12 12 13 13 14 13 12 12 16 15 12 4 6 7 7 11 14 15 19 21 21 21 23 25 26 25 23 25 26 21 11 14
30 29 22 14 10 15 19 21 20 15 13 8 9 9 9 10 11 11 10 10 10 15 9 5 6 10 9 10 14 17 20 22 22 20 22 22 22 23 19 15 11 10 11
28 25 20 13 11 14 18 20 16 14 9 7 3 4 7 7 7 8 8 7 8 10 11 2 3 6 6 10 14 17 20 21 21 19 18 19 19 20 18 13 12 13 14
30 22 22 15 12 14 17 19 18 15 10 5 3 1 6 9 8 7 6 5 7 7 6 5 2 2 8 9 13 16 18 19 18 18 17 17 17 17 18 17 14 8 6
28 22 21 14 12 13 14 18 19 17 13 9 6 3 6 7 6 7 7 7 6 6 6 6 5 1 4 9 12 14 13 15 14 14 13 13 14 14 16 18 18 11 4
27 23 21 14 10 10 12 15 18 17 14 9 7 5 3 3 3 4 4 4 3 3 5 5 7 7 7 8 12 12 12 13 13 12 13 12 13 15 12 15 17 15 10
21 20 19 15 9 5 6 10 13 17 15 11 8 8 3 2 2 1 2 2 3 1 2 4 5 10 10 10 11 13 14 15 15 15 13 12 12 14 15 16 15 17 14
20 14 13 11 8 4 3 2 4 5 8 8 7 10 13 8 7 7 5 4 4 5 5 4 6 7 7 10 12 13 15 17 17 17 16 14 14 14 14 10 20 17 17
19 17 16 15 11 9 8 7 6 5 4 6 7 9 8 8 10 9 8 8 8 8 8 8 8 9 9 11 12 14 15 16 18 19 18 16 15 14 14 14 14 23 24
22 19 16 15 14 12 11 11 10 9 8 7 9 11 11 11 12 12 13 13 14 14 14 14 13 12 12 12 14 15 16 18 18 19 18 17 16 14 14 15 14 15 24
27 22 18 15 12 10 9 9 8 9 8 8 8 10 12 14 15 17 17 19 20 19 19 18 16 15 15 15 16 18 19 19 19 17 15 16 17 16 17 18 16 11 18
24 24 20 17 15 13 10 9 7 6 6 7 8 10 12 14 17 19 21 22 24 24 24 24 22 21 20 20 19 19 20 20 19 19 18 19 19 20 21 21 20 18 18
27 23 22 21 20 17 17 15 13 12 11 11 13 16 18 19 19 19 23 24 28 27 29 29 29 28 27 25 25 24 23 22 22 24 23 23 23 23 23 22 21 20 18
25 23 22 23 21 21 23 21 20 16 16 15 19 21 23 23 23 24 25 28 29 30 31 31 33 33 33 32 32 31 28 26 26 27 27 26 26 25 24 19 16 17 18
28 26 24 25 22 24 26 26 24 22 19 20 21 21 24 26 27 28 28 30 33 34 33 33 35 36 37 38 36 35 33 32 32 32 31 29 26 24 19 15 16 18 24
28 27 28 29 29 30 31 31 30 27 26 27 30 32 34 36 37 38 38 38 37 37 37 37 37 38 39 39 40 37 38 36 37 34 28 25 20 12 13 17 20 27 29
37 36 34 35 38 36 37 37 36 34 35 34 39 42 44 47 49 51 52 50 44 42 41 45 43 43 44 42 38 36 36 36 34 27 22 18 16 16 21 28 30 32 29
46 47 47 46 47 45 42 43 42 41 41 43 48 50 50 54 55 58 60 58 52 49 45 42 49 48 48 46 43 40 35 35 33 29 27 26 31 36 37 35 34 33 33
58 59 59 56 55 53 51 50 48 47 45 47 49 51 52 54 58 62 64 61 54 53 47 42 46 44 44 44 46 45 44 40 37 35 37 41 43 43 39 39 40 36 30
69 70 63 62 61 59 58 58 55 49 47 47 52 55 59 60 63 59 57 56 54 55 50 44 47 49 47 44 48 51 50 48 47 44 43 42 37 30 24 29 26 25 26
57 58 63 67 65 64 62 60 57 52 50 49 54 56 59 61 57 54 51 50 50 50 48 46 46 48 47 47 47 46 40 43 43 41 36 29 19 26 22 27 27 28 30
65 57 55 58 59 60 61 59 56 53 51 52 52 56 58 55 54 50 45 43 44 46 47 45 48 48 48 46 43 42 18 21 22 25 19 19 27 27 28 29 27 21 17
58 60 58 53 54 55 57 57 54 51 52 51 51 52 53 50 47 42 37 36 40 43 42 46 49 50 47 45 43 45 48 47 21 17 31 33 32 28 26 24 22 19 19
40 46 52 56 59 59 56 53 50 49 49 48 49 49 45 44 40 34 32 34 38 41 46 46 48 49 52 48 47 49 47 45 51 38 32 37 39 37 30 25 22 22 21
36 46 49 51 51 52 52 48 46 46 43 45 44 44 43 40 33 28 28 32 36 39 41 43 50 54 52 48 51 45 41 45 47 43 37 48 47 35 32 28 23 18 15
Wind_Direction_500mb
167 165 153 131 132 142 139 141 144 148 144 132 127 125 128 133 130 117 117 131 123 123 117 117 88 43 35 29 23 34 44 52 61 66 52 60 57 62 76 99 97 91 88
165 162 157 137 131 146 146 150 145 140 134 128 133 138 150 154 155 143 141 156 167 168 142 96 53 21 17 13 27 42 49 55 61 62 60 59 64 55 73 105 95 103 123
168 163 160 144 135 145 152 155 154 152 149 129 138 149 158 171 187 189 181 182 189 197 148 117 23 14 8 16 35 46 55 57 58 63 62 61 57 49 53 69 53 50 64
163 164 163 152 143 147 158 163 161 158 167 149 148 209 207 181 180 187 189 191 186 162 188 177 337 2 15 22 30 43 49 55 54 56 58 58 56 48 34 36 31 46 66
163 167 155 149 137 146 159 169 168 172 189 202 307 184 159 157 150 157 162 157 147 152 162 177 190 162 25 29 29 32 36 39 44 47 49 48 49 50 45 35 20 43 72
162 162 158 154 140 139 158 173 176 189 215 250 264 195 121 129 138 144 141 152 123 112 170 185 154 113 48 22 21 20 20 24 26 28 30 31 32 37 46 44 31 25 29
164 168 167 165 152 141 155 174 187 203 217 230 238 210 96 64 68 118 133 163 182 181 136 190 236 267 314 339 343 344 347 352 359 2 5 6 8 14 26 26 30 28 4
172 175 177 180 175 158 157 171 183 193 214 230 210 229 254 351 297 355 65 32 7 308 227 225 250 270 285 304 313 318 312 321 331 336 342 344 346 352 357 349 7 12 14
161 179 192 196 200 191 191 183 181 213 229 237 227 216 247 262 288 274 278 290 330 349 335 309 281 292 288 294 300 301 301 310 318 320 325 327 322 329 337 314 317 351 353
165 175 187 200 209 215 215 217 210 207 233 244 242 257 264 294 290 287 292 294 297 301 307 310 303 293 288 288 292 295 299 305 308 311 315 316 314 309 317 330 300 315 334
172 175 180 192 199 209 220 226 227 225 230 240 247 251 268 280 282 285 285 282 285 288 288 286 284 287 293 297 299 297 302 303 304 308 302 304 313 299 299 315 317 299 316
160 159 159 165 174 189 197 209 214 226 234 243 257 267 272 276 279 281 283 284 285 286 289 289 288 291 294 295 294 294 296 301 306 301 298 293 297 300 295 302 306 288 295
166 174 172 176 184 189 196 212 219 232 247 261 275 282 285 287 283 283 283 284 283 282 281 279 279 281 285 287 287 289 288 290 291 291 287 287 291 294 296 299 303 299 277
194 193 196 202 209 211 214 214 220 230 246 263 271 273 278 281 285 289 287 285 280 278 277 276 275 275 277 280 279 277 281 283 284 282 281 283 285 290 294 300 306 310 306
210 210 212 218 221 224 229 230 232 238 253 263 268 273 278 280 282 280 282 280 281 277 276 275 274 273 274 275 276 278 279 281 282 282 282 283 287 292 295 303 308 300 306
220 226 229 238 238 240 242 239 243 249 262 271 275 278 278 282 285 284 283 282 279 276 275 273 271 271 272 272 274 277 278 277 277 277 279 283 287 291 301 300 289 293 291
240 242 240 248 249 256 257 253 250 258 265 275 281 279 280 281 283 282 281 279 278 274 272 272 272 273 273 273 274 274 274 274 274 278 282 287 290 300 298 284 282 284 281
245 248 248 250 250 255 261 254 253 261 267 278 283 280 279 279 279 278 278 278 277 271 270 267 271 274 276 281 288 286 286 285 290 287 285 304 307 286 266 268 273 278 282
255 255 255 252 253 255 259 256 258 263 270 276 280 279 278 278 279 278 276 275 270 263 262 266 271 269 272 274 278 281 283 286 288 286 282 278 274 269 267 266 264 266 269
261 260 258 258 253 252 257 255 257 263 271 280 283 281 279 279 280 278 276 273 265 258 259 256 267 274 274 275 276 274 275 277 276 276 272 268 270 269 267 264 268 273 270
261 260 260 259 258 252 251 254 257 262 269 283 280 279 281 284 284 281 276 270 263 255 255 257 258 263 269 276 270 272 273 270 267 270 270 267 267 264 241 260 249 252 259
262 258 260 262 257 253 250 250 254 258 269 282 278 279 281 285 284 279 274 266 260 255 256 261 261 262 262 265 267 273 274 277 266 269 264 250 223 223 226 219 225 243 263
260 264 272 266 260 254 249 248 251 261 272 278 280 283 283 283 283 278 270 259 253 248 254 257 258 260 267 269 265 262 254 238 246 235 221 228 222 222 220 229 246 241 251
268 265 264 263 261 254 247 246 252 262 274 282 285 285 286 284 282 276 268 258 252 252 248 251 255 256 258 262 268 267 265 257 214 179 163 184 199 216 221 226 226 239 257
269 260 262 261 256 248 245 248 254 265 275 280 281 284 282 282 278 271 263 259 256 253 253 256 257 257 263 261 258 264 266 262 240 229 185 199 199 197 202 218 228 240 256
266 255 247 256 259 251 249 250 257 267 276 281 283 285 287 285 277 268 259 256 258 260 261 259 263 261 257 260 256 252 256 244 240 234 219 197 200 188 197 208 224 239 243
Wind_Speed_850mb
30 26 19 16 15 19 22 23 24 20 15 13 15 19 24 24 21 20 19 21 19 14 10 6 6 9 12 14 17 19 18 19 20 19 19 19 23 22 21 25 25 27 22
30 30 21 15 13 18 22 22 21 18 16 12 12 13 13 14 13 12 12 16 15 12 4 6 7 7 11 14 15 19 21 21 21 23 25 26 25 23 25 26 21 11 14
30 29 22 14 10 15 19 21 20 15 13 8 9 9 9 10 11 11 10 10 10 15 9 5 6 10 9 10 14 17 20 22 22 20 22 22 22 23 19 15 11 10 11
28 25 20 13 11 14 18 20 16 14 9 7 3 4 7 7 7 8 8 7 8 10 11 2 3 6 6 10 14 17 20 21 21 19 18 19 19 20 18 13 12 13 14
30 22 22 15 12 14 17 19 18 15 10 5 3 1 6 9 8 7 6 5 7 7 6 5 2 2 8 9 13 16 18 19 18 18 17 17 17 17 18 17 14 8 6
28 22 21 14 12 13 14 18 19 17 13 9 6 3 6 7 6 7 7 7 6 6 6 6 5 1 4 9 12 14 13 15 14 14 13 13 14 14 16 18 18 11 4
27 23 21 14 10 10 12 15 18 17 14 9 7 5 3 3 3 4 4 4 3 3 5 5 7 7 7 8 12 12 12 13 13 12 13 12 13 15 12 15 17 15 10
21 20 19 15 9 5 6 10 13 17 15 11 8 8 3 2 2 1 2 2 3 1 2 4 5 10 10 10 11 13 14 15 15 15 13 12 12 14 15 16 15 17 14
20 14 13 11 8 4 3 2 4 5 8 8 7 10 13 8 7 7 5 4 4 5 5 4 6 7 7 10 12 13 15 17 17 17 16 14 14 14 14 10 20 17 17
19 17 16 15 11 9 8 7 6 5 4 6 7 9 8 8 10 9 8 8 8 8 8 8 8 9 9 11 12 14 15 16 18 19 18 16 15 14 14 14 14 23 24
22 19 16 15 14 12 11 11 10 9 8 7 9 11 11 11 12 12 13 13 14 14 14 14 13 12 12 12 14 15 16 18 18 19 18 17 16 14 14 15 14 15 24
27 22 18 15 12 10 9 9 8 9 8 8 8 10 12 14 15 17 17 19 20 19 19 18 16 15 15 15 16 18 19 19 19 17 15 16 17 16 17 18 16 11 18
24 24 20 17 15 13 10 9 7 6 6 7 8 10 12 14 17 19 21 22 24 24 24 24 22 21 20 20 19 19 20 20 19 19 18 19 19 20 21 21 20 18 18
27 23 22 21 20 17 17 15 13 12 11 11 13 16 18 19 19 19 23 24 28 27 29 29 29 28 27 25 25 24 23 22 22 24 23 23 23 23 23 22 21 20 18
25 23 22 23 21 21 23 21 20 16 16 15 19 21 23 23 23 24 25 28 29 30 31 31 33 33 33 32 32 31 28 26 26 27 27 26 26 25 24 19 16 17 18
28 26 24 25 22 24 26 26 24 22 19 20 21 21 24 26 27 28 28 30 33 34 33 33 35 36 37 38 36 35 33 32 32 32 31 29 26 24 19 15 16 18 24
28 27 28 29 29 30 31 31 30 27 26 27 30 32 34 36 37 38 38 38 37 37 37 37 37 38 39 39 40 37 38 36 37 34 28 25 20 12 13 17 20 27 29
37 36 34 35 38 36 37 37 36 34 35 34 39 42 44 47 49 51 52 50 44 42 41 45 43 43 44 42 38 36 36 36 34 27 22 18 16 16 21 28 30 32 29
46 47 47 46 47 45 42 43 42 41 41 43 48 50 50 54 55 58 60 58 52 49 45 42 49 48 48 46 43 40 35 35 33 29 27 26 31 36 37 35 34 33 33
58 59 59 56 55 53 51 50 48 47 45 47 49 51 52 54 58 62 64 61 54 53 47 42 46 44 44 44 46 45 44 40 37 35 37 41 43 43 39 39 40 36 30
69 70 63 62 61 59 58 58 55 49 47 47 52 55 59 60 63 59 57 56 54 55 50 44 47 49 47 44 48 51 50 48 47 44 43 42 37 30 24 29 26 25 26
57 58 63 67 65 64 62 60 57 52 50 49 54 56 59 61 57 54 51 50 50 50 48 46 46 48 47 47 47 46 40 43 43 41 36 29 19 26 22 27 27 28 30
65 57 55 58 59 60 61 59 56 53 51 52 52 56 58 55 54 50 45 43 44 46 47 45 48 48 48 46 43 42 18 21 22 25 19 19 27 27 28 29 27 21 17
58 60 58 53 54 55 57 57 54 51 52 51 51 52 53 50 47 42 37 36 40 43 42 46 49 50 47 45 43 45 48 47 21 17 31 33 32 28 26 24 22 19 19
40 46 52 56 59 59 56 53 50 49 49 48 49 49 45 44 40 34 32 34 38 41 46 46 48 49 52 48 47 49 47 45 51 38 32 37 39 37 30 25 22 22 21
36 46 49 51 51 52 52 48 46 46 43 45 44 44 43 40 33 28 28 32 36 39 41 43 50 54 52 48 51 45 41 45 47 43 37 48 47 35 32 28 23 18 15
Wind_Direction_850mb
167 165 153 131 132 142 139 141 144 148 144 132 127 125 128 133 130 117 117 131 123 123 117 117 88 43 35 29 23 34 44 52 61 66 52 60 57 62 76 99 97 91 88
165 162 157 137 131 146 146 150 145 140 134 128 133 138 150 154 155 143 141 156 167 168 142 96 53 21 17 13 27 42 49 55 61 62 60 59 64 55 73 105 95 103 123
168 163 160 144 135 145 152 155 154 152 149 129 138 149 158 171 187 189 181 182 189 197 148 117 23 14 8 16 35 46 55 57 58 63 62 61 57 49 53 69 53 50 64
163 164 163 152 143 147 158 163 161 158 167 149 148 209 207 181 180 187 189 191 186 162 188 177 337 2 15 22 30 43 49 55 54 56 58 58 56 48 34 36 31 46 66
163 167 155 149 137 146 159 169 168 172 189 202 307 184 159 157 150 157 162 157 147 152 162 177 190 162 25 29 29 32 36 39 44 47 49 48 49 50 45 35 20 43 72
162 162 158 154 140 139 158 173 176 189 215 250 264 195 121 129 138 144 141 152 123 112 170 185 154 113 48 22 21 20 20 24 26 28 30 31 32 37 46 44 31 25 29
164 168 167 165 152 141 155 174 187 203 217 230 238 210 96 64 68 118 133 163 182 181 136 190 236 267 314 339 343 344 347 352 359 2 5 6 8 14 26 26 30 28 4
172 175 177 180 175 158 157 171 183 193 214 230 210 229 254 351 297 355 65 32 7 308 227 225 250 270 285 304 313 318 312 321 331 336 342 344 346 352 357 349 7 12 14
161 179 192 196 200 191 191 183 181 213 229 237 227 216 247 262 288 274 278 290 330 349 335 309 281 292 288 294 300 301 301 310 318 320 325 327 322 329 337 314 317 351 353
165 175 187 200 209 215 215 217 210 207 233 244 242 257 264 294 290 287 292 294 297 301 307 310 303 293 288 288 292 295 299 305 308 311 315 316 314 309 317 330 300 315 334
172 175 180 192 199 209 220 226 227 225 230 240 247 251 268 280 282 285 285 282 285 288 288 286 284 287 293 297 299 297 302 303 304 308 302 304 313 299 299 315 317 299 316
160 159 159 165 174 189 197 209 214 226 234 243 257 267 272 276 279 281 283 284 285 286 289 289 288 291 294 295 294 294 296 301 306 301 298 293 297 300 295 302 306 288 295
166 174 172 176 184 189 196 212 219 232 247 261 275 282 285 287 283 283 283 284 283 282 281 279 279 281 285 287 287 289 288 290 291 291 287 287 291 294 296 299 303 299 277
194 193 196 202 209 211 214 214 220 230 246 263 271 273 278 281 285 289 287 285 280 278 277 276 275 275 277 280 279 277 281 283 284 282 281 283 285 290 294 300 306 310 306
210 210 212 218 221 224 229 230 232 238 253 263 268 273 278 280 282 280 282 280 281 277 276 275 274 273 274 275 276 278 279 281 282 282 282 283 287 292 295 303 308 300 306
220 226 229 238 238 240 242 239 243 249 262 271 275 278 278 282 285 284 283 282 279 276 275 273 271 271 272 272 274 277 278 277 277 277 279 283 287 291 301 300 289 293 291
240 242 240 248 249 256 257 253 250 258 265 275 281 279 280 281 283 282 281 279 278 274 272 272 272 273 273 273 274 274 274 274 274 278 282 287 290 300 298 284 282 284 281
245 248 248 250 250 255 261 254 253 261 267 278 283 280 279 279 279 278 278 278 277 271 270 267 271 274 276 281 288 286 286 285 290 287 285 304 307 286 266 268 273 278 282
255 255 255 252 253 255 259 256 258 263 270 276 280 279 278 278 279 278 276 275 270 263 262 266 271 269 272 274 278 281 283 286 288 286 282 278 274 269 267 266 264 266 269
261 260 258 258 253 252 257 255 257 263 271 280 283 281 279 279 280 278 276 273 265 258 259 256 267 274 274 275 276 274 275 277 276 276 272 268 270 269 267 264 268 273 270
261 260 260 259 258 252 251 254 257 262 269 283 280 279 281 284 284 281 276 270 263 255 255 257 258 263 269 276 270 272 273 270 267 270 270 267 267 264 241 260 249 252 259
262 258 260 262 257 253 250 250 254 258 269 282 278 279 281 285 284 279 274 266 260 255 256 261 261 262 262 265 267 273 274 277 266 269 264 250 223 223 226 219 225 243 263
260 264 272 266 260 254 249 248 251 261 272 278 280 283 283 283 283 278 270 259 253 248 254 257 258 260 267 269 265 262 254 238 246 235 221 228 222 222 220 229 246 241 251
268 265 264 263 261 254 247 246 252 262 274 282 285 285 286 284 282 276 268 258 252 252 248 251 255 256 258 262 268 267 265 257 214 179 163 184 199 216 221 226 226 239 257
269 260 262 261 256 248 245 248 254 265 275 280 281 284 282 282 278 271 263 259 256 253 253 256 257 257 263 261 258 264 266 262 240 229 185 199 199 197 202 218 228 240 256
266 255 247 256 259 251 249 250 257 267 276 281 283 285 287 285 277 268 259 256 258 260 261 259 263 261 257 260 256 252 256 244 240 234 219 197 200 188 197 208 224 239 243